Home   Weather   Barrow   Past weeks

Flag for USA Past Weather in Barrow, Alaska, USA — Yesterday and Last 2 Weeks

Now
N/A

Partly sunny.


Feels Like: N/A
Forecast: -9 / -1 °F
Wind: 15 mph from Southwest

Location: Post Rogers Memorial Airport

Current Time: Jan 21, 2017 at 6:58:41 pm

Latest Report: Jan 21, 2017 at 5:53 pm


Visibility: 3 mi

Pressure: 29.73 "Hg

Humidity: N/A

Dew Point: -17 °F

Location of BarrowLocation

Past Weather in Barrow — Graph

°F

Barrow Temperature Yesterday

Maximum temperature yesterday: -19 °F (at 11:53 pm)
Minimum temperature yesterday: -35 °F (at 12:53 am)
Average temperature yesterday: -28 °F

High & Low Weather Summary for the Past Weeks

 TemperatureHumidityPressure
High28 °F (Jan 7, 12:53 am)92% (Jan 7, 9:59 pm)30.30 "Hg (Jan 7, 9:59 pm)
Low-35 °F (Jan 20, 12:53 am)65% (Jan 11, 4:13 pm)29.53 "Hg (Jan 20, 5:53 am)
Average-3 °F77%29.85 "Hg
* Reported Jan 6 5:53 pm — Jan 21 5:53 pm, Barrow, Weather by CustomWeather, © 2017

Note: Actual official high and low records may vary slightly from our data, if they occured in-between our weather recording intervals... More about our weather records

Advertising

Barrow Weather History for the Previous 24 Hours

Scroll right to see more
 ConditionsComfort  
Time TempWeatherWind HumidityBarometerVisibility
5:53 pm
Sat, Jan 21
N/APartly sunny.15 mphN/A29.73 "Hg3 mi
4:53 pm-18 °FLight snow. Scattered clouds.15 mph69%29.72 "Hg2 mi
3:53 pm-20 °FLight snow. Scattered clouds.15 mph69%29.71 "Hg2 mi
2:53 pm-19 °FLight snow. Partly sunny.15 mph72%29.71 "Hg3 mi
1:53 pm-17 °FLight snow. Scattered clouds.15 mph73%29.70 "Hg3 mi
1:09 pm-13 °FLight snow. Scattered clouds.14 mph70%29.69 "Hg3 mi
12:53 pm-15 °FLight snow. Scattered clouds.14 mph70%29.69 "Hg1 mi
12:43 pm-16 °FLight snow. Scattered clouds.15 mph70%29.68 "Hg1 mi
11:53 am-17 °FLight snow. Scattered clouds.15 mph70%29.67 "Hg2 mi
10:53 am-17 °FLight snow. Scattered clouds.15 mph70%29.67 "Hg2 mi
10:11 am-17 °FLight snow. Scattered clouds.14 mph70%29.65 "Hg4 mi
9:53 am-18 °FLight snow. Scattered clouds.14 mph69%29.65 "Hg2 mi
9:28 am-16 °FLight snow. Scattered clouds.14 mph70%29.64 "Hg2 mi
8:53 am-18 °FLight snow. Overcast.13 mph69%29.64 "Hg2 mi
8:29 am-18 °FLight snow. Overcast.14 mph73%29.63 "Hg2 mi
7:53 am-17 °FLight snow. Overcast.13 mph70%29.63 "Hg3 mi
7:30 am-19 °FLight snow. Overcast.13 mph69%29.62 "Hg2 mi
6:53 am-20 °FLight snow. Partly sunny.13 mph73%29.62 "Hg4 mi
5:53 am-19 °FLight snow. Mostly cloudy.12 mph69%29.61 "Hg7 mi
5:34 am-24 °FLight snow. Mostly cloudy.13 mph68%29.60 "Hg3 mi
5:19 am-24 °FLight snow. Passing clouds.13 mph68%29.60 "Hg2 mi
4:53 am-27 °FLight snow. Passing clouds.13 mph72%29.61 "Hg4 mi
4:15 am-26 °FLight snow. Passing clouds.13 mph68%29.61 "Hg3 mi
3:53 am-25 °FLight snow. Passing clouds.14 mph68%29.62 "Hg5 mi
2:53 am-25 °FLight snow. Mostly cloudy.14 mph68%29.61 "Hg4 mi
2:20 am-24 °FLight snow. Passing clouds.14 mph68%29.60 "Hg3 mi
1:53 am-22 °FLight snow. Overcast.13 mph69%29.60 "Hg4 mi
12:53 am-23 °FLight snow. Mostly cloudy.13 mph69%29.60 "Hg7 mi
12:14 am-20 °FLight snow. Mostly cloudy.10 mph73%29.59 "Hg7 mi
11:53 pm
Fri, Jan 20
-19 °FLight snow. Mostly cloudy.10 mph69%29.59 "Hg4 mi
11:09 pm-24 °FPassing clouds.14 mph68%29.58 "Hg3 mi
11:04 pm-26 °FLight snow. Passing clouds.14 mph68%29.58 "Hg2 mi
10:53 pm-27 °FLight snow. Passing clouds.14 mph68%29.59 "Hg4 mi
9:53 pm-20 °FPassing clouds.10 mph66%29.58 "Hg10 mi
8:53 pm-23 °FPassing clouds.7 mph69%29.57 "Hg5 mi
7:53 pm-29 °FClear.13 mph68%29.57 "Hg10 mi
6:53 pm-25 °FPassing clouds.10 mph68%29.57 "Hg7 mi
Weather by CustomWeather, © 2017

See weather overviewHow to use our weather pages